When you browse on this site, cookies collect data to enhance your experience and personalize the content and advertising you see.
Visit our Privacy Policy to learn more. By continuing to use the site, you agree to this use of cookies and data.
  • Em Portugal
  • Lista de países
  • Para 7 dias
  • Temperatura da água
  • Mapas de satélite
  • Mapa do tempo
  • Widgets de tempo
  • user-avatar
    Iniciar Sessão

    Previsão horária em Slomiana

    Hoje, 11 Dezembro, Terça-feira

    Tempo Temperatura Precipitação Vento Pressão Humidade
    00:00 -1°C° 0 mm 4 m/s 741 mmHg 89%
    01:00 -1°C° 0 mm 4 m/s 741 mmHg 89%
    02:00 0°C° 0 mm 3 m/s 741 mmHg 89%
    03:00 -1°C° 0 mm 3 m/s 741 mmHg 89%
    04:00 -1°C° 0 mm 3 m/s 741 mmHg 89%
    05:00 -1°C° 0 mm 3 m/s 741 mmHg 88%
    06:00 -1°C° 0 mm 3 m/s 741 mmHg 87%
    07:00 -1°C° 0 mm 2 m/s 741 mmHg 86%
    08:00 +1°C° 0 mm 2 m/s 741 mmHg 83%
    09:00 0°C° 0 mm 3 m/s 741 mmHg 80%
    10:00 +1°C° 0 mm 3 m/s 742 mmHg 77%
    11:00 +1°C° 0 mm 3 m/s 742 mmHg 75%
    12:00 +1°C° 0 mm 3 m/s 741 mmHg 72%
    13:00 +2°C° 0 mm 3 m/s 741 mmHg 70%
    14:00 +1°C° 0.1 mm 3 m/s 742 mmHg 74%
    15:00 +1°C° 0.1 mm 3 m/s 742 mmHg 77%
    16:00 0°C° 0.1 mm 3 m/s 742 mmHg 81%
    17:00 0°C° 0.2 mm 3 m/s 742 mmHg 82%
    18:00 0°C° 0.2 mm 3 m/s 742 mmHg 84%
    19:00 0°C° 0.2 mm 3 m/s 742 mmHg 85%
    20:00 0°C° 0.2 mm 3 m/s 743 mmHg 86%
    21:00 +1°C° 0.2 mm 2 m/s 743 mmHg 87%
    22:00 -1°C° 0.2 mm 2 m/s 743 mmHg 88%
    23:00 -1°C° 0 mm 2 m/s 743 mmHg 89%

    Amanhã, 12 Dezembro, Quarta-feira

    Tempo Temperatura Precipitação Vento Pressão Humidade
    00:00 -1°C° 0 mm 2 m/s 744 mmHg 90%
    01:00 -1°C° 0 mm 2 m/s 744 mmHg 90%
    02:00 -1°C° 0 mm 2 m/s 744 mmHg 90%
    03:00 -1°C° 0 mm 2 m/s 744 mmHg 90%
    04:00 -1°C° 0 mm 2 m/s 744 mmHg 90%
    05:00 -1°C° 0 mm 2 m/s 745 mmHg 90%
    06:00 -1°C° 0 mm 2 m/s 745 mmHg 90%
    07:00 -1°C° 0 mm 2 m/s 745 mmHg 91%
    08:00 -1°C° 0 mm 2 m/s 746 mmHg 88%
    09:00 -1°C° 0 mm 2 m/s 746 mmHg 85%
    10:00 +1°C° 0 mm 2 m/s 747 mmHg 82%
    11:00 +1°C° 0 mm 2 m/s 747 mmHg 80%
    12:00 +1°C° 0 mm 2 m/s 747 mmHg 78%
    13:00 +1°C° 0 mm 2 m/s 747 mmHg 75%
    14:00 +1°C° 0 mm 2 m/s 747 mmHg 78%
    15:00 -1°C° 0 mm 2 m/s 747 mmHg 82%
    16:00 -2°C° 0 mm 2 m/s 747 mmHg 85%
    17:00 -2°C° 0 mm 2 m/s 747 mmHg 86%
    18:00 -2°C° 0 mm 3 m/s 748 mmHg 87%
    19:00 -2°C° 0 mm 3 m/s 748 mmHg 89%
    20:00 -2°C° 0 mm 3 m/s 748 mmHg 89%
    21:00 -2°C° 0 mm 3 m/s 748 mmHg 90%
    22:00 -1°C° 0 mm 3 m/s 748 mmHg 91%
    23:00 -1°C° 0.1 mm 3 m/s 748 mmHg 91%

    Depois de amanhã, 13 Dezembro, Quinta-feira

    Tempo Temperatura Precipitação Vento Pressão Humidade
    00:00 -2°C° 0.1 mm 4 m/s 748 mmHg 91%
    01:00 -2°C° 0.1 mm 4 m/s 748 mmHg 91%
    02:00 -2°C° 0.3 mm 4 m/s 748 mmHg 91%
    03:00 -2°C° 0.3 mm 4 m/s 747 mmHg 91%
    04:00 -2°C° 0.3 mm 4 m/s 747 mmHg 91%
    05:00 -2°C° 0.4 mm 4 m/s 747 mmHg 91%
    06:00 -2°C° 0.4 mm 5 m/s 747 mmHg 91%
    07:00 -2°C° 0.4 mm 5 m/s 747 mmHg 91%
    08:00 -2°C° 0.4 mm 5 m/s 747 mmHg 91%
    09:00 -2°C° 0.4 mm 5 m/s 747 mmHg 91%
    10:00 -2°C° 0.4 mm 5 m/s 747 mmHg 91%
    11:00 -2°C° 0.3 mm 4 m/s 747 mmHg 91%
    12:00 -2°C° 0.3 mm 4 m/s 747 mmHg 90%
    13:00 -2°C° 0.3 mm 4 m/s 747 mmHg 90%
    14:00 -2°C° 0.3 mm 4 m/s 747 mmHg 91%
    15:00 -2°C° 0.3 mm 4 m/s 747 mmHg 92%
    16:00 -1°C° 0.3 mm 3 m/s 747 mmHg 92%
    17:00 -1°C° 0.2 mm 3 m/s 747 mmHg 93%
    18:00 -1°C° 0.2 mm 3 m/s 747 mmHg 93%
    19:00 -1°C° 0.2 mm 3 m/s 748 mmHg 93%
    20:00 -1°C° 0.1 mm 3 m/s 748 mmHg 94%
    21:00 -1°C° 0.1 mm 3 m/s 748 mmHg 94%
    22:00 -2°C° 0.1 mm 3 m/s 748 mmHg 94%
    23:00 -2°C° 0.1 mm 2 m/s 748 mmHg 95%

    14 Dezembro, Sexta-feira

    Tempo Temperatura Precipitação Vento Pressão Humidade
    00:00 -2°C° 0.1 mm 2 m/s 748 mmHg 95%
    01:00 -2°C° 0.1 mm 2 m/s 749 mmHg 95%
    02:00 -2°C° 0.1 mm 2 m/s 749 mmHg 95%
    03:00 -2°C° 0.1 mm 2 m/s 749 mmHg 95%
    04:00 -2°C° 0.1 mm 2 m/s 749 mmHg 95%
    05:00 -2°C° 0.1 mm 2 m/s 749 mmHg 95%
    06:00 -2°C° 0.1 mm 2 m/s 749 mmHg 95%
    07:00 -2°C° 0.1 mm 2 m/s 749 mmHg 95%
    08:00 -2°C° 0.1 mm 2 m/s 750 mmHg 94%
    09:00 -1°C° 0.1 mm 2 m/s 750 mmHg 94%
    10:00 -1°C° 0.1 mm 2 m/s 750 mmHg 93%
    11:00 -1°C° 0.1 mm 2 m/s 750 mmHg 93%
    12:00 -1°C° 0.1 mm 2 m/s 751 mmHg 93%
    13:00 -1°C° 0.1 mm 2 m/s 751 mmHg 92%
    14:00 +1°C° 0 mm 1 m/s 751 mmHg 93%
    15:00 +1°C° 0 mm 1 m/s 751 mmHg 94%
    16:00 +1°C° 0 mm 1 m/s 751 mmHg 94%
    17:00 0°C° 0.1 mm 1 m/s 752 mmHg 95%
    18:00 0°C° 0.1 mm 1 m/s 752 mmHg 95%
    19:00 0°C° 0.1 mm 1 m/s 753 mmHg 95%
    20:00 0°C° 0 mm 1 m/s 753 mmHg 95%
    21:00 -1°C° 0 mm 1 m/s 753 mmHg 95%
    22:00 -1°C° 0 mm 1 m/s 753 mmHg 94%
    23:00 -1°C° 0 mm 1 m/s 753 mmHg 94%

    15 Dezembro, Sábado

    Tempo Temperatura Precipitação Vento Pressão Humidade
    00:00 -2°C° 0 mm 1 m/s 753 mmHg 94%
    01:00 -2°C° 0 mm 1 m/s 754 mmHg 93%
    02:00 -2°C° 0 mm 1 m/s 754 mmHg 93%
    03:00 -2°C° 0 mm 1 m/s 754 mmHg 93%
    04:00 -3°C° 0 mm 1 m/s 754 mmHg 93%
    05:00 -3°C° 0 mm 1 m/s 754 mmHg 93%
    06:00 -3°C° 0 mm 1 m/s 755 mmHg 93%
    07:00 -3°C° 0 mm 1 m/s 755 mmHg 93%
    08:00 -2°C° 0 mm 1 m/s 755 mmHg 91%
    09:00 -2°C° 0 mm 1 m/s 755 mmHg 90%
    10:00 -1°C° 0 mm 1 m/s 756 mmHg 88%
    11:00 -1°C° 0 mm 1 m/s 755 mmHg 87%
    12:00 0°C° 0 mm 1 m/s 755 mmHg 86%
    13:00 0°C° 0 mm 1 m/s 755 mmHg 84%
    14:00 0°C° 0 mm 1 m/s 755 mmHg 86%
    15:00 -1°C° 0 mm 1 m/s 756 mmHg 88%
    16:00 -1°C° 0 mm 1 m/s 756 mmHg 91%
    17:00 -2°C° 0 mm 1 m/s 756 mmHg 91%
    18:00 -2°C° 0 mm 1 m/s 756 mmHg 91%
    19:00 -2°C° 0 mm 1 m/s 756 mmHg 91%
    20:00 -2°C° 0 mm 1 m/s 756 mmHg 92%
    21:00 -2°C° 0 mm 1 m/s 756 mmHg 92%
    22:00 -2°C° 0 mm 1 m/s 756 mmHg 92%
    23:00 -2°C° 0 mm 1 m/s 756 mmHg 92%

    16 Dezembro, Domingo

    Tempo Temperatura Precipitação Vento Pressão Humidade
    00:00 -2°C° 0 mm 1 m/s 756 mmHg 93%
    01:00 -2°C° 0 mm 1 m/s 756 mmHg 94%
    02:00 -3°C° 0 mm 1 m/s 756 mmHg 94%
    03:00 -3°C° 0 mm 1 m/s 756 mmHg 94%
    04:00 -3°C° 0 mm 1 m/s 755 mmHg 95%
    05:00 -2°C° 0 mm 1 m/s 756 mmHg 95%
    06:00 -2°C° 0 mm 1 m/s 756 mmHg 95%
    07:00 -2°C° 0 mm 1 m/s 756 mmHg 94%
    08:00 -2°C° 0 mm 1 m/s 756 mmHg 93%
    09:00 -1°C° 0 mm 1 m/s 756 mmHg 92%
    10:00 -1°C° 0 mm 1 m/s 756 mmHg 91%
    11:00 -1°C° 0 mm 1 m/s 755 mmHg 89%
    12:00 0°C° 0 mm 1 m/s 755 mmHg 88%
    13:00 0°C° 0 mm 1 m/s 755 mmHg 86%
    14:00 0°C° 0 mm 1 m/s 755 mmHg 86%
    15:00 0°C° 0 mm 1 m/s 755 mmHg 87%
    16:00 -1°C° 0 mm 1 m/s 755 mmHg 87%
    17:00 -3°C° 0 mm 2 m/s 755 mmHg 88%
    18:00 -3°C° 0 mm 2 m/s 755 mmHg 88%
    19:00 -3°C° 0 mm 2 m/s 755 mmHg 89%
    20:00 -4°C° 0 mm 2 m/s 755 mmHg 90%
    21:00 -4°C° 0 mm 2 m/s 754 mmHg 91%
    22:00 -5°C° 0 mm 2 m/s 754 mmHg 92%
    23:00 -5°C° 0 mm 2 m/s 754 mmHg 92%
    Mostrar mais